DW9493 Weather Reports


Display with metric or nautical units.
time (UTC)temp
F
wind
direction
speed
MPH
gust
MPH
rain 1hr
in
rain 24hr
in
rain mn
in
humidity
%
barometer
mb
20260503224651 62 245 5.0 11.0 0.00 0.00 0.00 20 1016.9
20260503223649 61 242 3.0 7.0 0.00 0.00 0.00 23 1016.9
20260503222647 61 201 3.0 7.0 0.00 0.00 0.00 21 1016.9
20260503221647 61 252 3.0 7.0 0.00 0.00 0.00 23 1017.2
20260503220648 61 219 4.0 10.0 0.00 0.00 0.00 23 1017.4
20260503215644 61 194 0.0 7.0 0.00 0.00 0.00 22 1017.6
20260503214644 60 250 2.0 8.0 0.00 0.00 0.00 23 1017.7
20260503213636 61 271 1.0 6.0 0.00 0.00 0.00 20 1017.8
20260503213114 61 319 1.0 8.0 0.00 0.00 0.00 18 1017.9
20260503211635 62 139 4.0 10.0 0.00 0.00 0.00 18 1018.1
20260503210628 61 232 3.0 11.0 0.00 0.00 0.00 20 1018.2
20260503210116 62 238 3.0 16.0 0.00 0.00 0.00 20 1018.4
20260503204614 61 224 4.0 14.0 0.00 0.00 0.00 19 1018.6
20260503203612 61 316 3.0 12.0 0.00 0.00 0.00 20 1018.7
20260503202612 60 285 5.0 14.0 0.00 0.00 0.00 20 1018.7
20260503201612 60 314 5.0 19.0 0.00 0.00 0.00 19 1019.0
20260503200609 61 302 5.0 14.0 0.00 0.00 0.00 20 1019.0
20260503200039 61 278 3.0 11.0 0.00 0.00 0.00 20 1019.0
20260503194607 61 240 3.0 8.0 0.00 0.00 0.00 18 1019.1
20260503193604 61 256 1.0 3.0 0.00 0.00 0.00 18 1019.1
20260503192606 60 245 5.0 10.0 0.00 0.00 0.00 18 1019.5
20260503191603 60 242 2.0 6.0 0.00 0.00 0.00 21 1019.3
20260503190602 61 250 2.0 7.0 0.00 0.00 0.00 20 1019.6
20260503185559 60 219 6.0 12.0 0.00 0.00 0.00 17 1019.6
20260503184559 62 318 3.0 10.0 0.00 0.00 0.00 20 1019.7
20260503183558 62 256 5.0 9.0 0.00 0.00 0.00 20 1020.0
20260503182557 60 195 4.0 8.0 0.00 0.00 0.00 20 1020.2
20260503182037 60 259 2.0 8.0 0.00 0.00 0.00 21 1020.3
20260503180556 60 249 4.0 13.0 0.00 0.00 0.00 21 1020.3
20260503175550 60 328 1.0 5.0 0.00 0.00 0.00 23 1020.6
20260503174551 59 274 3.0 8.0 0.00 0.00 0.00 24 1020.8
20260503173550 58 235 3.0 13.0 0.00 0.00 0.00 23 1021.0
20260503172548 58 304 4.0 15.0 0.00 0.00 0.00 23 1021.1
20260503171547 57 298 4.0 12.0 0.00 0.00 0.00 24 1021.3
20260503170544 57 327 3.0 9.0 0.00 0.00 0.00 24 1021.3
20260503150523 51 322 4.0 9.0 0.00 0.00 0.00 33 1021.6
20260503130505 43 269 0.0 1.0 0.00 0.00 0.00 49 1022.2
20260503110448 44 215 1.0 4.0 0.00 0.00 0.00 40 1021.5
20260503090426 46 238 1.0 3.0 0.00 0.00 0.00 40 1021.8
20260503081413 41 277 0.0 1.0 0.00 0.00 0.00 50 1022.2
20260503080412 41 270 0.0 2.0 0.00 0.00 0.00 48 1022.2
20260503072853 42 269 2.0 4.0 0.00 0.00 0.00 44 1022.6
20260503071408 42 298 1.0 4.0 0.00 0.00 0.00 43 1022.7
20260503070405 42 255 0.0 3.0 0.00 0.00 0.00 42 1022.7
20260503054354 40 316 0.0 1.0 0.00 0.00 0.00 39 1022.7
20260503053837 42 316 0.0 1.0 0.00 0.00 0.00 36 1022.9
20260503053237 43 316 1.0 3.0 0.00 0.00 0.00 32 1022.7
20260503051328 43 316 1.0 4.0 0.00 0.00 0.00 31 1022.7
20260503050327 43 294 1.0 6.0 0.00 0.00 0.00 31 1022.7
20260503045328 43 315 1.0 4.0 0.00 0.00 0.00 31 1022.6
20260503044327 42 323 1.0 2.0 0.00 0.00 0.00 33 1022.7
20260503043328 42 255 1.0 2.0 0.00 0.00 0.00 34 1022.6
20260503042321 42 255 1.0 2.0 0.00 0.00 0.00 35 1022.6
20260503041321 40 304 1.0 4.0 0.00 0.00 0.00 41 1022.6
20260503040322 41 308 0.0 1.0 0.00 0.00 0.00 40 1022.5
20260503035319 42 308 1.0 4.0 0.00 0.00 0.00 37 1022.6
20260503034759 42 307 0.0 2.0 0.00 0.00 0.00 40 1022.5
20260503033315 42 272 1.0 7.0 0.00 0.00 0.00 37 1022.5
20260503032308 41 308 0.0 2.0 0.00 0.00 0.00 44 1022.5
20260503031309 42 317 0.0 2.0 0.00 0.00 0.00 44 1022.5
20260503030308 43 317 0.0 2.0 0.00 0.00 0.00 44 1022.5
20260503025751 44 317 0.0 2.0 0.00 0.00 0.00 43 1022.5
20260503024306 45 266 0.0 1.0 0.00 0.00 0.00 41 1022.4
20260503023307 44 319 0.0 1.0 0.00 0.00 0.00 43 1022.5
20260503022306 44 319 0.0 1.0 0.00 0.00 0.00 43 1022.4
20260503021305 44 319 0.0 2.0 0.00 0.00 0.00 44 1022.2
20260503020306 44 318 1.0 2.0 0.00 0.00 0.00 42 1022.2
20260503015307 46 311 0.0 1.0 0.00 0.00 0.00 41 1022.2
20260503014745 47 311 0.0 0.0 0.00 0.00 0.00 38 1022.0
20260503013304 48 312 0.0 2.0 0.00 0.00 0.00 38 1021.8
20260503012743 49 312 0.0 1.0 0.00 0.00 0.00 37 1021.8
20260503011301 53 312 0.0 2.0 0.00 0.00 0.00 30 1021.8
20260503010302 55 75 0.0 1.0 0.00 0.00 0.00 18 1021.6
20260503005300 56 55 0.0 3.0 0.00 0.00 0.00 16 1021.7
20260503004258 56 66 1.0 6.0 0.00 0.00 0.00 15 1021.6
20260503003258 57 29 1.0 6.0 0.00 0.00 0.00 15 1021.6
20260503002258 58 81 1.0 6.0 0.00 0.00 0.00 14 1021.7
20260503001735 58 65 2.0 5.0 0.00 0.00 0.00 15 1021.7
20260503000258 59 19 2.0 8.0 0.00 0.00 0.00 15 1021.7
20260502235258 59 119 1.0 6.0 0.00 0.00 0.00 15 1021.7
20260502234741 59 120 3.0 7.0 0.00 0.00 0.00 15 1021.7
20260502233257 59 79 3.0 8.0 0.00 0.00 0.00 16 1021.7
20260502232256 59 118 2.0 8.0 0.00 0.00 0.00 15 1021.8
20260502231255 59 56 2.0 7.0 0.00 0.00 0.00 17 1021.8
20260502230256 60 44 2.0 9.0 0.00 0.00 0.00 16 1021.8